{"data":{"norad_id":69145,"epoch":"2026-09-20T00:00:38.116224Z","epoch_age_seconds":66287,"freshness":"FRESH","line1":"1 69145U 26110X   26263.00044116  .00017078  00000+0  52998-3 0  9998","line2":"2 69145  97.2840  98.1284 0001655  90.9629 269.1803 15.33453314 20149","mean_motion":15.33453314,"eccentricity":0.0001655,"inclination_deg":97.284,"raan_deg":98.1284,"arg_perigee_deg":90.9629,"mean_anomaly_deg":269.1803,"bstar":0.00052998,"rev_number":2014,"period_min":93.905695520901,"perigee_km":464.38581300031,"apogee_km":466.65106295028,"semimajor_km":6843.6554379753,"source":"CELESTRAK","updated_at":"2026-09-20T09:00:44.088527Z"}}